, FL

(GMT )
Whiting Fld NAS

Weather History for KNSE - February, 2014

Change the Weather History Date:

Tuesday, February 4, 2014

  Actual Average Record
Temperature  
Mean Temperature 59 °F -  
Max Temperature 70 °F 59 °F 77 °F (2008)
Min Temperature 48 °F 42 °F 24 °F (2009)
Degree Days  
Heating Degree Days 6    
Growing Degree Days 9 (Base 50)    
Moisture  
Dew Point 55 °F    
Average Humidity 86    
Maximum Humidity 93    
Minimum Humidity 73    
Precipitation  
Precipitation 0.00 in - - ()
Sea Level Pressure  
Sea Level Pressure 30.00 in    
Wind  
Wind Speed 7 mph (SE)    
Max Wind Speed 17 mph    
Max Gust Speed 29 mph    
Visibility 5 miles    
Events Fog    
Averages and records for this station are not official NWS values.
T = Trace of Precipitation, MM = Missing Value Source: NWS Daily Summary

Daily Weather History Graph

Daily Weather History Graph

Search for Another Location

Airport or City:

Trip Planner

Search our weather history database for the weather conditions in past years. The results will help you decide how hot, cold, wet, or windy it might be!

Date:

Astronomy

Feb. 04, 2014 Rise Set
Actual Time 6:37 AM CST 5:26 PM CST
Civil Twilight 6:12 AM CST 5:51 PM CST
Nautical Twilight 5:43 AM CST 6:20 PM CST
Astronomical Twilight 5:15 AM CST 6:49 PM CST
Moon 9:40 AM CST (2/4) 10:53 PM CST (2/4)
Length of Visible Light 11h 39m
Length of Day
10h 49m
Waxing Crescent, 29% of the Moon is Illuminated
Feb 4
Waxing Crescent
Feb 6
First Quarter
Feb 14
Full
Feb 22
Last Quarter
Mar 1
New

Hourly Weather History & Observations

Time (CST) Temp. Dew Point Humidity Pressure Visibility Wind Dir Wind Speed Gust Speed Precip Events Conditions
12:56 AM 48.9 °F 43.0 °F 80% 30.06 in 9.0 mi Variable 3.5 mph - N/A   Overcast
1:56 AM 48.9 °F 43.0 °F 80% 30.04 in 8.0 mi NE 4.6 mph - N/A   Overcast
2:26 AM 48.9 °F 44.1 °F 83% 30.08 in 6.0 mi ENE 5.8 mph - N/A   Haze
2:56 AM 48.9 °F 44.1 °F 83% 30.04 in 5.0 mi NE 3.5 mph - N/A   Haze
3:27 AM 48.0 °F 45.0 °F 89% 30.07 in 2.5 mi NNE 3.5 mph - N/A   Overcast
3:38 AM 48.0 °F 45.0 °F 89% 30.08 in 3.0 mi NNE 4.6 mph - N/A   Overcast
3:46 AM 48.0 °F 45.0 °F 89% 30.07 in 2.5 mi NNE 3.5 mph - N/A   Overcast
3:56 AM 48.0 °F 45.0 °F 89% 30.04 in 2.0 mi North 3.5 mph - N/A   Overcast
4:15 AM 48.0 °F 45.0 °F 89% 30.07 in 2.0 mi Variable 4.6 mph - N/A   Overcast
4:56 AM 48.0 °F 45.0 °F 89% 30.03 in 4.0 mi NNE 3.5 mph - N/A   Overcast
5:41 AM 48.9 °F 46.0 °F 90% 30.08 in 5.0 mi ENE 4.6 mph - N/A   Overcast
5:56 AM 48.9 °F 46.0 °F 90% 30.04 in 4.0 mi NE 4.6 mph - N/A   Overcast
6:11 AM 48.0 °F 46.0 °F 93% 30.08 in 2.5 mi ENE 5.8 mph - N/A   Overcast
6:24 AM 48.0 °F 46.0 °F 93% 30.08 in 1.2 mi East 5.8 mph - N/A   Overcast
6:56 AM 48.9 °F 46.9 °F 93% 30.05 in 0.5 mi ENE 5.8 mph - N/A Fog Fog
7:56 AM 50.0 °F 48.0 °F 93% 30.05 in 0.5 mi East 5.8 mph - N/A Fog Fog
8:31 AM 52.0 °F 50.0 °F 93% 30.08 in 1.5 mi East 5.8 mph - N/A   Overcast
8:56 AM 54.0 °F 51.1 °F 90% 30.05 in 3.0 mi East 4.6 mph - N/A   Overcast
9:56 AM 57.0 °F 53.1 °F 87% 30.04 in 5.0 mi ESE 5.8 mph - N/A   Overcast
10:15 AM 59.0 °F 55.0 °F 87% 30.07 in 7.0 mi ESE 5.8 mph - N/A   Overcast
10:40 AM 62.1 °F 57.0 °F 84% 30.06 in 7.0 mi SE 9.2 mph - N/A   Overcast
10:56 AM 64.0 °F 57.0 °F 78% 30.01 in 9.0 mi ESE 8.1 mph - N/A   Overcast
11:56 AM 69.1 °F 62.1 °F 78% 29.97 in 10.0 mi South 12.7 mph - N/A   Overcast
12:56 PM 70.0 °F 64.0 °F 81% 29.95 in 8.0 mi South 15.0 mph - N/A   Overcast
1:48 PM 68.0 °F 64.0 °F 87% 29.97 in 3.0 mi SSE 13.8 mph - N/A   Overcast
1:56 PM 66.9 °F 64.0 °F 90% 29.94 in 2.0 mi SSE 15.0 mph - N/A   Overcast
2:03 PM 68.0 °F 64.0 °F 87% 29.97 in 1.0 mi SSE 11.5 mph - N/A   Overcast
2:27 PM 68.0 °F 63.0 °F 84% 29.96 in 7.0 mi SSE 12.7 mph - N/A   Overcast
2:56 PM 70.0 °F 62.1 °F 76% 29.93 in 7.0 mi South 13.8 mph - N/A   Mostly Cloudy
3:56 PM 70.0 °F 61.0 °F 73% 29.92 in 9.0 mi South 11.5 mph - N/A   Mostly Cloudy
4:25 PM 70.0 °F 61.0 °F 73% 29.97 in 10.0 mi South 16.1 mph 21.9 mph N/A   Mostly Cloudy
4:56 PM 68.0 °F 61.0 °F 78% 29.93 in 9.0 mi SSE 16.1 mph - N/A   Mostly Cloudy
5:56 PM 66.0 °F 61.0 °F 84% 29.93 in 9.0 mi SSE 17.3 mph - N/A   Overcast
6:31 PM 64.9 °F 62.1 °F 90% 29.96 in 4.0 mi SSE 11.5 mph - N/A   Overcast
6:56 PM 64.9 °F 62.1 °F 90% 29.92 in 4.0 mi SSE 11.5 mph - N/A   Overcast
7:11 PM 64.9 °F 62.1 °F 90% 29.96 in 1.0 mi SSE 10.4 mph - N/A   Overcast
7:54 PM 66.2 °F 62.6 °F 88% 29.97 in 3.0 mi SSE 9.2 mph - N/A   Overcast
7:56 PM 66.0 °F 63.0 °F 90% 29.93 in 3.0 mi SSE 9.2 mph - N/A   Overcast
8:56 PM 68.0 °F 64.0 °F 87% 29.92 in 7.0 mi South 17.3 mph 24.2 mph N/A   Overcast
9:56 PM 69.1 °F 64.9 °F 87% 29.90 in 8.0 mi South 17.3 mph - N/A   Overcast
10:56 PM 68.0 °F 64.9 °F 90% 29.89 in 7.0 mi South 15.0 mph - N/A   Overcast
11:16 PM 68.0 °F 64.9 °F 90% 29.93 in 2.5 mi South 17.3 mph - N/A   Overcast
11:31 PM 68.0 °F 64.9 °F 90% 29.92 in 1.2 mi South 17.3 mph 26.5 mph N/A   Overcast
11:56 PM 68.0 °F 64.9 °F 90% 29.89 in 1.0 mi South 17.3 mph 28.8 mph N/A   Overcast